Theta_e
320 319 318 319 318 319 319 321 322 321 331 333 331 335 333 332 337 341 338 337 339 337 335 335 334 334 333 335 336 334 333 334 334 333 334 335 334 335 335 335 335 334 333 331 331 331 330 331 330 329 327 326 325 326 328 331 331 330 331 332 332 332 332 333 333 334 333 333 330 326 325 327 326 326 326 325 326 327 325 322 319 320 326 330 330 331 331 329 329 330 331 328 327 329 330 330 332
319 319 318 319 318 319 319 320 324 326 335 335 334 337 334 334 337 340 337 336 339 336 335 335 334 334 333 333 333 333 334 333 333 333 334 335 334 334 335 335 334 333 333 331 331 330 329 331 330 328 326 325 326 325 327 330 331 330 331 331 331 330 331 333 333 332 328 325 323 325 329 329 326 326 326 327 327 326 326 325 325 325 326 328 329 330 330 330 331 331 331 331 331 331 331 332 333
318 319 318 318 318 320 320 322 324 326 335 338 338 338 334 336 338 338 335 335 335 335 335 334 334 335 333 334 334 334 335 334 333 334 334 334 334 334 335 334 334 334 333 332 331 331 331 331 330 328 326 326 326 326 327 329 330 330 330 331 330 330 331 332 331 327 324 324 326 330 331 328 327 328 328 328 328 327 328 330 331 331 329 330 331 331 332 332 333 332 332 332 332 332 332 332 333
318 318 318 318 319 320 324 325 323 327 334 336 339 338 335 336 337 336 334 335 334 335 335 334 335 335 334 335 335 334 334 334 333 334 334 334 334 334 334 334 335 333 333 332 332 332 332 331 329 328 327 327 326 326 327 328 329 329 330 330 330 329 330 330 329 326 327 330 331 332 330 329 329 329 329 328 329 329 331 333 334 334 333 333 333 333 333 333 332 330 329 330 331 332 332 332 332
317 318 317 318 320 319 324 326 325 331 330 332 340 339 335 334 336 335 333 336 334 335 335 334 336 334 334 335 335 334 335 334 333 334 332 334 333 334 335 334 334 333 333 332 332 331 331 331 329 328 328 327 327 328 328 328 330 330 330 330 330 330 330 329 328 328 330 332 332 332 331 330 329 329 329 329 330 331 332 334 335 335 335 334 334 334 333 333 331 328 325 325 327 328 329 330 329
317 317 318 319 320 317 325 330 331 335 328 329 339 339 335 332 334 333 332 335 334 336 335 334 335 334 334 335 335 335 335 334 334 333 332 334 334 334 334 334 334 333 332 331 331 330 330 330 329 328 328 328 329 330 329 330 330 330 331 330 330 330 329 328 328 330 332 332 332 332 331 330 329 329 329 331 331 332 333 333 334 334 334 334 333 334 333 332 332 329 325 322 321 322 324 325 325
317 318 318 320 321 320 329 332 333 336 331 329 336 339 335 331 331 333 334 335 335 335 334 334 333 334 335 334 335 335 334 333 334 334 333 333 333 333 334 334 333 332 331 329 329 329 330 330 329 328 328 328 329 330 331 330 330 330 331 331 330 329 330 329 330 332 332 333 332 332 331 330 329 329 329 330 331 332 333 333 334 334 333 334 333 333 333 333 331 328 324 322 320 319 319 320 321
317 317 317 322 325 328 333 335 335 336 335 331 333 335 332 331 331 333 335 334 335 335 334 334 333 336 336 334 335 335 334 334 334 333 332 331 332 333 333 333 332 332 330 328 328 329 330 330 329 328 328 329 329 331 331 331 330 330 331 330 329 330 331 331 331 332 333 333 332 332 331 330 328 329 329 330 331 332 333 333 333 333 333 333 333 333 333 332 329 325 323 323 322 320 318 317 319
317 317 317 324 329 333 335 336 335 335 338 336 332 332 331 331 331 333 335 335 335 335 334 335 334 336 335 333 335 335 335 335 334 332 332 332 333 333 333 332 332 331 330 328 328 328 330 330 330 329 330 330 330 330 331 331 330 329 330 330 330 330 331 330 331 332 333 331 330 330 329 327 326 326 328 329 330 331 332 332 333 333 332 333 332 332 331 329 327 325 325 324 322 323 322 320 320
316 318 318 324 332 334 333 334 336 337 340 338 334 331 330 331 331 332 335 336 336 334 334 333 334 335 334 333 334 335 336 336 334 332 332 333 333 333 333 332 332 331 330 330 329 329 330 330 330 330 329 328 328 328 329 330 330 329 329 330 329 329 330 330 331 332 332 331 328 328 327 326 325 323 324 325 328 330 331 332 333 333 332 332 331 330 328 327 326 327 327 325 324 325 326 325 323
316 316 319 330 338 337 334 335 337 339 337 335 333 331 331 332 332 332 333 335 334 333 333 333 333 333 333 333 333 334 335 334 332 332 332 333 333 333 332 333 332 331 331 331 330 330 330 330 330 329 327 326 327 327 328 328 329 329 328 329 329 328 329 330 331 331 330 330 328 328 327 326 326 324 323 322 323 327 331 332 332 332 332 331 331 329 327 326 326 326 325 325 325 325 326 326 325
317 314 322 334 336 336 334 335 337 337 335 335 334 331 331 332 332 332 333 334 333 333 333 333 333 332 333 333 333 333 333 333 332 332 333 333 333 332 332 332 332 331 330 330 331 330 329 330 329 328 328 328 327 327 328 328 328 329 328 328 328 328 329 330 330 329 329 328 327 326 326 325 325 325 324 322 320 322 327 331 332 331 332 331 331 330 327 326 326 324 324 324 324 324 324 324 324
316 314 325 327 325 331 333 335 335 334 336 336 334 331 332 332 332 332 333 333 333 335 334 333 332 332 333 333 332 333 333 333 332 333 333 333 333 332 332 332 331 330 330 330 330 329 330 329 326 326 327 327 327 328 328 329 328 328 327 328 329 330 330 330 329 329 328 328 327 326 326 326 325 324 324 324 323 322 323 327 329 331 331 331 331 330 328 327 326 324 323 324 324 324 323 324 324
315 314 325 322 321 330 330 334 334 334 340 337 331 332 333 332 332 332 333 334 333 334 334 333 332 332 334 332 332 333 332 332 332 333 332 332 332 332 332 332 331 330 330 330 330 330 330 327 325 326 326 327 327 328 329 329 328 327 327 327 328 328 328 328 328 327 327 326 327 327 327 326 324 325 324 323 324 323 321 321 323 326 329 330 330 329 328 327 327 325 324 324 324 323 323 323 323
316 314 326 327 326 330 329 334 333 335 341 337 332 332 332 332 333 331 332 334 334 333 333 333 332 333 334 332 332 333 332 331 332 333 332 333 332 332 332 331 331 331 331 330 331 331 329 327 326 326 325 327 328 328 329 328 328 328 327 327 327 327 326 326 327 327 327 326 326 327 326 325 325 326 324 323 324 324 322 321 320 321 323 326 327 327 327 328 327 325 325 325 324 323 323 323 323
316 317 333 334 328 329 330 332 332 336 339 333 332 332 333 332 332 332 332 333 333 332 333 333 332 332 333 332 332 332 332 332 333 332 332 332 331 331 331 330 331 330 330 330 330 330 328 327 326 325 326 327 329 328 328 328 328 328 327 326 327 328 326 325 328 328 327 327 327 327 327 327 326 325 325 326 326 325 323 324 323 321 320 321 323 325 326 327 327 327 326 326 325 325 324 324 323
315 324 340 335 328 330 330 332 333 339 339 332 331 332 333 332 331 331 331 331 332 332 332 332 331 332 332 332 332 332 332 332 332 332 331 331 330 330 329 329 329 328 328 329 330 329 328 328 326 325 328 328 328 328 328 329 328 326 325 325 326 327 326 327 328 328 327 327 326 326 327 327 326 326 328 328 328 327 326 326 325 323 321 320 320 321 322 323 324 324 324 324 324 323 323 323 323
319 332 337 330 330 330 329 331 330 334 337 333 331 330 332 333 332 330 331 331 332 332 332 332 332 331 332 333 332 332 332 332 332 331 331 330 329 329 329 329 328 327 327 328 329 329 328 328 326 325 328 328 326 328 328 327 325 324 323 323 324 325 327 327 326 326 326 326 326 326 327 327 328 328 328 328 328 329 329 328 327 326 325 324 323 322 321 321 322 322 323 322 322 322 321 320 320
323 335 339 331 331 328 326 327 326 330 333 331 329 330 330 331 330 329 331 332 331 332 332 332 332 332 332 332 331 331 332 332 332 331 331 330 330 328 328 328 328 328 327 327 328 328 328 327 326 326 328 328 326 327 327 326 325 324 324 324 324 324 326 326 325 325 325 326 327 326 327 328 328 328 328 328 329 329 329 329 329 328 328 327 326 326 324 324 324 323 324 324 325 326 325 322 320
324 336 343 331 328 327 325 327 327 330 331 329 329 329 330 329 329 329 330 330 330 331 332 331 332 331 331 331 331 331 332 332 332 331 331 331 330 328 327 328 328 328 328 328 328 328 328 327 326 327 328 328 327 327 326 325 325 325 325 324 324 325 326 326 326 324 324 325 325 326 328 328 328 328 328 328 328 328 329 328 328 328 328 328 328 327 326 326 326 325 325 326 327 328 327 327 325
324 333 338 328 326 329 328 328 329 330 329 329 328 329 330 329 329 329 329 331 329 329 331 331 330 330 331 331 331 331 332 332 331 331 332 331 329 328 328 328 328 328 328 328 327 327 329 328 326 327 328 327 326 326 326 325 326 326 325 325 326 326 325 325 325 324 324 325 325 326 327 327 328 328 328 328 327 327 327 327 327 328 328 328 328 327 326 327 327 326 325 326 328 328 328 328 329
327 328 328 326 327 328 328 329 330 329 329 329 328 330 330 328 329 329 329 331 330 330 331 330 330 331 331 331 331 332 332 332 331 331 331 331 329 328 328 328 329 329 328 327 327 327 328 327 326 327 326 325 325 325 327 327 327 326 326 327 328 327 327 326 327 326 326 326 325 324 324 325 326 327 327 327 327 327 326 327 327 327 328 328 328 328 328 327 328 327 326 326 327 329 331 330 330
329 328 326 326 327 327 328 329 329 328 328 329 329 329 329 329 330 330 330 331 331 331 331 331 331 331 331 331 331 332 332 331 331 331 331 330 329 328 327 327 328 329 328 327 327 327 327 327 327 327 326 325 325 325 328 328 326 326 328 329 329 328 327 326 326 325 324 323 322 321 319 320 322 325 326 327 326 327 326 326 326 327 327 328 328 328 329 328 328 327 327 328 328 330 331 331 331
330 331 326 326 328 328 329 329 328 327 328 329 329 329 329 330 330 330 330 330 330 331 331 331 331 330 331 332 331 331 332 331 331 331 330 330 330 329 328 327 327 327 328 328 327 327 326 326 327 327 326 324 324 325 327 327 327 327 328 328 326 324 323 322 323 322 322 320 319 318 317 317 317 320 323 325 326 326 326 325 324 325 327 328 328 328 328 328 328 328 328 329 329 330 331 331 331
330 330 326 327 329 329 329 328 328 328 329 329 328 329 329 329 329 330 330 330 330 331 331 330 330 329 330 330 331 331 331 331 331 331 330 330 330 329 329 327 325 325 326 327 327 327 328 327 326 326 324 324 325 326 326 327 327 326 326 324 324 324 323 323 323 323 322 320 319 318 318 318 317 319 321 325 326 326 325 324 323 323 324 326 327 327 327 328 328 329 328 329 329 330 330 331 331
327 327 326 327 328 328 328 328 329 329 329 329 329 329 329 329 329 330 330 330 330 331 331 329 329 329 330 329 330 331 331 331 331 330 329 330 330 329 327 326 323 323 324 326 327 327 328 327 326 326 325 325 326 326 324 322 322 322 321 320 322 323 324 324 325 324 322 320 318 318 319 321 322 324 325 327 327 326 325 323 323 322 322 323 323 322 322 325 328 328 328 329 329 330 330 330 329
325 325 326 327 328 328 329 329 329 329 329 329 330 329 329 328 329 331 330 329 330 330 329 329 329 330 330 330 330 330 330 331 331 331 330 330 330 329 327 324 322 323 324 325 327 327 327 327 326 326 326 324 323 321 319 318 319 320 320 320 321 321 322 324 324 323 321 319 317 317 318 320 324 326 327 327 327 327 325 322 321 322 321 321 320 319 319 321 325 328 328 329 329 330 330 330 328
326 326 326 326 327 328 329 329 328 328 328 327 328 328 328 329 329 330 330 329 330 330 328 328 328 329 330 329 329 330 330 330 331 330 331 330 330 330 327 323 322 322 323 324 324 326 326 326 326 325 323 321 320 318 318 319 321 322 323 323 323 322 322 322 321 320 319 317 316 316 317 318 321 323 325 326 325 325 323 318 319 320 319 320 320 321 321 321 323 326 327 328 329 329 329 330 328
325 326 329 328 330 330 327 327 328 328 329 326 326 331 329 328 329 329 330 329 330 330 328 327 327 328 329 328 328 329 330 330 330 330 330 330 330 330 326 322 323 323 322 323 323 326 326 326 325 322 320 319 319 318 318 320 322 323 323 322 321 321 320 319 318 317 315 315 315 316 316 316 318 320 323 324 323 322 319 316 317 317 317 319 320 323 324 322 321 322 323 324 326 326 326 328 329
325 326 328 332 338 334 325 326 329 328 329 325 328 336 332 327 328 329 330 330 330 330 329 328 327 328 329 329 327 328 330 330 329 329 330 330 330 329 325 322 323 322 322 322 323 324 325 324 322 320 319 318 316 316 319 321 322 322 320 318 318 319 318 317 315 313 313 312 313 315 316 316 316 316 318 319 319 318 316 314 315 315 315 316 318 321 321 321 320 320 320 321 322 323 323 326 328
327 325 325 334 337 332 326 326 328 328 328 325 330 336 330 327 329 329 329 330 329 329 329 328 328 328 329 328 328 327 329 330 329 330 330 330 329 328 324 322 322 322 321 322 321 322 322 321 320 320 318 316 315 317 320 322 322 321 319 318 319 319 318 316 315 313 311 310 311 313 315 315 315 315 315 315 315 315 314 314 315 315 315 315 316 317 318 318 318 318 319 320 321 323 325 326 327
332 329 328 335 333 329 330 325 324 328 327 324 330 334 329 327 328 328 328 329 329 329 329 329 328 329 329 328 329 328 327 328 328 329 330 330 329 327 323 322 322 321 321 321 321 321 321 321 320 318 317 318 319 319 321 323 323 323 321 321 321 321 320 319 317 315 312 311 310 311 312 313 314 315 315 315 315 315 314 314 315 315 315 315 315 316 317 317 316 316 318 320 322 323 325 326 326
333 333 330 331 331 331 332 324 322 326 327 326 330 334 330 327 327 327 328 328 327 328 327 328 328 329 330 329 330 328 327 327 326 327 329 328 328 327 323 322 322 321 321 321 321 321 321 320 319 317 317 321 323 322 323 325 326 326 325 324 324 323 322 321 320 319 316 313 311 310 311 313 314 315 316 315 316 316 314 314 315 315 315 315 314 315 316 317 316 316 318 321 324 324 324 325 326
327 332 330 327 329 331 330 327 324 324 328 329 330 333 332 329 327 328 328 327 326 326 326 327 328 329 330 330 330 329 328 327 326 327 327 327 328 327 323 322 322 322 322 322 321 321 320 320 320 320 321 324 326 326 327 327 327 327 326 325 324 324 324 323 322 322 320 317 314 312 312 313 315 316 316 316 316 316 315 316 316 316 316 316 315 315 315 317 317 316 319 324 325 325 325 325 325
327 330 330 326 328 329 329 329 326 326 330 331 331 332 333 333 330 328 328 328 327 326 327 327 328 330 330 330 330 330 329 328 327 328 327 327 327 327 325 324 324 324 323 323 322 321 320 321 322 323 324 326 327 327 327 327 327 327 326 325 324 324 324 323 322 322 322 319 318 316 314 314 314 315 315 316 317 316 314 316 318 318 318 318 317 315 314 315 317 317 318 322 325 326 325 325 325
330 329 330 329 328 327 326 327 324 326 331 331 333 334 334 336 333 329 328 328 328 327 327 327 327 329 330 330 331 330 329 328 327 327 328 328 328 327 326 325 325 325 324 324 323 322 322 323 323 324 326 327 326 326 326 325 325 325 325 324 324 324 323 323 323 322 321 320 319 318 317 317 316 315 315 314 315 316 314 314 317 318 318 319 318 317 315 314 315 317 318 321 325 326 326 325 324
326 327 329 329 329 326 324 326 323 323 330 331 333 335 332 333 333 329 328 328 329 328 327 327 327 328 329 330 330 330 329 328 328 328 328 328 328 328 327 326 326 326 326 325 324 324 324 324 323 323 325 326 325 325 325 324 323 323 322 321 322 322 322 323 322 322 321 320 320 319 319 319 318 318 316 314 314 314 314 314 315 317 318 318 319 318 318 316 315 316 319 322 325 326 326 326 325
325 326 327 327 328 327 324 326 324 322 331 332 331 333 329 329 330 327 327 329 328 328 328 328 328 328 329 329 330 330 330 329 329 329 328 327 327 328 327 327 326 326 326 326 325 325 325 324 322 323 324 325 324 325 324 324 323 323 322 321 321 321 320 321 321 322 321 321 321 320 320 319 318 319 318 317 316 315 314 313 314 316 317 319 319 319 319 318 317 315 316 319 324 327 326 326 326
325 324 326 327 326 327 324 324 324 324 331 332 328 328 325 325 327 325 325 328 328 327 328 328 328 329 329 329 330 329 330 330 329 328 328 327 326 326 326 326 326 326 326 326 326 325 325 323 321 322 323 323 324 323 324 324 323 323 321 320 319 318 318 318 319 322 322 321 322 322 321 320 319 319 319 319 318 317 315 314 313 313 316 318 319 320 320 320 318 316 315 316 319 325 327 326 326
323 323 326 327 324 327 326 323 324 325 329 330 327 328 326 324 327 325 323 326 328 328 329 329 328 329 330 329 330 330 329 330 330 329 328 327 327 325 324 325 325 325 325 325 325 324 323 322 320 321 321 322 322 322 322 322 321 321 321 320 319 318 318 318 321 324 324 324 324 323 321 319 319 319 320 320 319 319 318 317 315 313 313 316 318 319 320 321 320 319 317 314 315 320 325 326 326
321 322 326 326 323 326 326 324 327 328 327 325 328 333 329 325 328 327 324 324 327 329 329 330 329 329 330 329 329 330 330 330 330 330 329 328 327 326 325 325 324 324 324 324 324 323 322 322 322 322 322 323 322 322 322 321 321 321 320 319 319 319 320 321 323 325 325 325 324 324 322 320 320 321 321 321 321 321 321 321 320 316 313 314 316 317 319 320 321 320 319 316 314 315 320 323 326
322 322 324 323 324 325 325 326 331 334 330 323 328 335 331 327 329 327 326 327 327 327 327 329 331 330 330 330 329 330 330 330 330 330 330 330 328 328 327 327 326 325 324 324 324 323 323 323 324 324 324 324 324 324 323 323 323 323 323 322 320 320 319 321 323 324 324 324 324 324 323 323 323 324 325 324 323 323 323 323 323 321 317 314 314 315 318 319 320 321 320 318 317 315 316 318 322
323 322 323 322 323 324 325 328 332 336 333 323 324 333 332 331 329 325 328 331 329 326 324 325 329 330 330 331 330 330 330 330 331 330 331 331 330 329 329 328 328 327 326 326 325 326 326 326 325 325 325 325 325 325 325 325 326 326 326 326 324 321 319 317 319 321 322 323 323 323 324 324 324 325 326 327 326 324 325 325 324 324 323 318 315 314 315 317 319 320 321 320 319 317 315 315 318
323 320 322 322 323 324 325 329 330 330 329 325 325 331 333 331 328 325 327 332 332 329 325 324 327 329 329 330 330 330 331 330 331 331 330 331 331 330 330 330 329 329 328 328 328 329 329 328 327 326 326 325 325 326 326 327 327 327 326 325 324 323 321 319 317 317 318 319 321 322 323 324 325 325 325 326 327 327 326 327 327 326 325 323 319 315 314 315 317 320 320 320 320 319 317 315 316
319 318 321 321 322 323 324 325 327 327 328 329 329 330 334 330 327 327 329 334 334 331 328 324 325 328 329 329 330 330 331 330 330 331 331 331 331 331 331 331 330 330 329 329 329 330 329 329 328 327 327 326 327 327 327 326 326 326 326 325 325 325 325 324 322 321 320 319 319 321 322 323 326 326 327 326 326 327 327 327 328 327 327 326 323 319 315 314 315 317 320 320 320 319 318 316 316
317 318 321 321 321 323 326 326 329 333 332 330 327 328 334 332 330 331 332 333 332 329 328 324 324 329 329 328 329 330 330 331 331 331 331 331 331 331 330 330 330 330 330 330 330 330 330 329 329 328 328 328 328 328 327 326 326 326 326 326 325 325 325 325 326 325 325 323 321 321 322 324 326 327 327 327 327 327 327 327 328 328 327 326 326 322 317 314 314 315 318 319 319 318 318 317 317
318 320 321 321 324 327 333 334 333 336 332 328 325 326 333 334 331 331 331 329 328 328 329 325 325 328 328 328 329 330 330 330 330 330 330 331 331 331 331 330 330 330 330 330 330 330 330 330 329 329 328 326 327 327 325 324 324 324 324 324 324 324 324 324 325 325 325 324 324 323 324 325 326 327 328 328 328 328 327 328 328 328 327 326 326 324 319 315 314 314 315 317 318 317 317 317 317
320 324 321 322 327 329 334 336 335 334 329 328 325 325 332 333 330 329 329 328 326 326 327 326 326 327 328 330 330 330 330 329 330 330 329 330 330 330 330 330 329 330 330 330 330 329 330 329 329 329 328 327 327 326 325 325 325 325 324 324 325 325 324 324 324 324 324 324 324 325 326 325 325 327 328 328 327 327 327 327 327 328 328 326 326 325 322 317 314 314 313 314 316 317 316 317 317
320 324 323 323 327 328 329 329 330 332 330 328 326 326 330 331 329 329 329 330 327 324 325 325 326 327 328 330 330 330 330 329 329 329 329 329 329 330 329 329 328 328 327 327 327 326 326 326 325 325 324 324 324 324 324 324 324 325 326 326 326 325 326 326 326 326 326 325 325 325 326 326 326 326 327 327 326 325 324 325 326 327 327 326 325 325 323 319 315 314 312 312 314 315 315 315 316
320 322 324 324 325 327 327 325 325 330 331 326 324 328 330 329 330 329 329 329 326 325 325 326 326 327 328 329 329 329 328 328 328 328 328 327 327 327 326 325 324 323 323 322 322 321 321 321 320 320 320 319 320 320 320 320 321 322 323 323 324 324 324 325 325 326 327 327 326 326 326 327 327 327 327 327 327 326 325 324 324 326 327 325 324 324 324 320 317 315 313 312 314 313 312 314 316
320 321 322 322 326 328 328 331 332 331 332 330 328 328 328 329 328 327 327 327 326 326 325 326 327 327 328 327 327 328 327 327 327 326 326 326 326 325 322 321 321 321 321 320 319 319 319 320 319 319 319 319 319 319 318 318 319 319 319 320 321 321 322 323 324 325 325 326 326 327 327 327 327 327 327 327 327 327 326 324 323 325 326 325 324 324 323 321 318 316 314 313 313 313 313 314 316
318 319 321 321 325 330 327 328 332 331 333 333 330 327 327 328 327 325 327 326 325 326 325 326 327 326 327 328 328 328 327 326 325 324 325 325 324 323 322 322 322 322 321 320 319 319 319 319 319 319 319 319 319 318 318 318 317 317 317 317 317 318 320 320 321 323 323 324 325 326 326 326 326 326 326 326 327 327 325 323 323 324 325 325 325 325 323 321 318 316 315 314 314 314 314 314 315
319 319 322 320 318 327 328 324 326 330 334 330 325 329 331 330 331 329 329 330 328 326 326 326 327 326 327 328 328 328 327 326 326 325 325 324 323 323 323 323 323 322 322 321 320 319 319 319 318 318 318 318 318 317 317 317 316 316 315 314 314 314 315 316 317 319 320 321 322 323 324 325 325 326 326 325 326 326 326 324 323 324 325 325 324 324 323 320 318 317 316 314 315 315 313 313 315
323 320 321 319 317 324 330 331 330 332 334 329 326 332 334 333 334 331 330 331 331 329 327 325 325 324 324 325 325 326 326 326 326 325 325 324 323 323 323 324 323 322 322 322 321 319 318 318 318 317 317 317 316 315 315 314 313 313 313 312 311 310 310 311 312 314 316 317 318 319 321 322 324 325 325 325 325 326 326 325 324 324 326 325 324 323 322 320 319 317 316 316 316 316 314 311 313
321 320 318 321 323 325 328 332 333 332 333 331 329 330 331 333 335 332 330 331 332 330 328 324 323 322 322 322 322 323 323 324 324 325 325 324 323 323 324 324 324 323 322 322 322 319 318 317 316 316 316 315 315 314 314 313 312 312 312 311 310 310 309 309 309 309 311 313 315 315 316 318 320 322 324 325 325 326 326 326 325 325 326 325 324 323 322 320 319 317 317 317 317 318 316 311 311
318 320 321 326 329 328 327 329 332 334 334 331 329 329 332 335 335 332 331 331 332 331 329 325 322 321 321 320 321 321 322 322 323 324 324 324 324 324 324 324 324 324 323 323 322 319 317 317 317 316 316 315 315 314 314 314 313 313 312 312 311 311 310 309 309 308 308 310 311 311 312 313 315 317 319 321 323 324 325 325 325 325 325 324 323 323 322 320 320 318 318 318 318 318 317 312 310
324 327 327 328 326 323 325 325 326 333 336 333 332 332 335 336 333 331 332 331 330 329 327 324 322 321 321 320 320 320 321 321 321 322 322 322 322 322 323 324 324 325 324 323 321 320 318 317 317 317 316 316 315 316 316 316 314 314 313 312 312 311 311 310 310 309 308 308 308 309 309 310 310 312 313 316 318 320 322 324 324 323 323 324 322 322 321 320 320 319 318 319 318 318 318 314 309
332 334 327 326 326 323 327 326 322 329 333 332 334 337 337 334 329 330 330 328 327 326 324 323 322 322 321 320 320 320 320 320 320 320 320 320 319 319 320 320 321 322 323 324 323 321 319 318 318 318 317 315 315 316 319 318 316 314 313 312 311 311 311 311 310 309 308 307 307 307 308 309 310 311 311 312 313 314 316 319 321 321 322 323 322 321 320 320 321 320 319 319 318 318 319 315 308
Wind_Speed
3 4 7 9 10 7 4 3 1 2 3 2 2 0 1 1 2 2 2 2 1 4 7 6 7 8 6 5 9 10 8 3 2 2 2 2 4 3 2 1 1 1 1 1 1 2 3 4 5 5 5 5 5 5 5 5 4 4 3 3 2 2 2 2 2 2 2 2 2 2 2 2 2 3 4 5 4 3 1 1 2 3 4 4 3 2 1 2 3 5 5 7 9 7 6 6 6
2 4 8 8 8 5 2 3 2 2 4 1 2 2 2 2 2 2 1 2 2 3 9 12 12 13 10 10 11 11 9 7 4 4 5 5 4 3 3 2 1 1 1 1 1 2 3 4 4 4 4 4 5 5 5 4 4 5 4 4 4 3 3 3 3 3 2 2 2 3 3 3 4 4 4 4 4 2 1 3 5 4 4 5 5 5 5 6 7 6 5 7 7 7 6 6 6
3 5 7 6 5 2 1 3 2 1 4 1 3 2 1 2 2 4 2 1 5 9 11 10 9 9 8 6 7 6 4 5 7 6 6 5 4 3 4 3 3 2 2 2 2 3 3 3 3 4 4 4 4 4 4 4 4 4 5 5 4 4 4 3 3 3 3 3 3 3 3 4 5 6 5 4 3 1 3 4 6 6 6 7 7 8 8 8 8 6 6 6 5 5 5 5 5
4 5 6 4 2 3 3 3 2 3 3 2 3 3 1 0 4 4 4 3 6 8 8 9 7 7 8 6 6 5 5 5 5 5 5 5 5 4 4 4 4 3 3 2 3 3 3 3 3 4 4 4 4 4 4 4 3 3 4 4 4 4 4 4 3 3 3 3 3 3 4 5 6 6 5 2 2 2 4 3 5 5 6 8 8 9 8 8 7 5 5 4 3 3 3 3 4
4 5 5 3 1 2 3 3 2 4 2 3 2 4 2 2 2 3 4 5 3 2 6 8 4 6 9 7 4 2 4 5 4 4 5 5 5 6 5 4 4 3 4 4 4 4 4 4 3 4 3 3 3 4 3 3 3 3 4 3 3 3 3 3 3 3 2 2 3 4 5 5 5 5 4 3 3 2 2 2 3 4 6 7 7 8 8 8 6 4 4 3 3 3 2 2 2
2 3 4 5 5 3 3 3 2 2 3 4 2 5 3 2 1 1 3 3 1 2 4 4 3 4 7 6 7 5 2 3 4 4 6 5 5 5 5 4 4 4 4 4 4 4 4 3 3 3 3 2 3 4 3 3 3 4 4 3 4 4 3 3 3 2 2 3 4 5 5 5 5 4 4 3 3 2 3 4 3 5 5 6 7 6 7 7 5 4 4 3 2 2 3 4 3
1 1 3 6 6 5 4 3 2 2 3 5 4 4 3 2 2 2 3 1 2 3 2 4 6 5 5 2 6 8 5 5 4 4 5 5 5 5 5 4 4 4 4 4 3 4 4 3 3 2 2 1 3 4 4 4 4 4 4 4 4 4 3 3 3 2 2 3 4 6 6 5 5 4 3 2 3 3 5 6 5 6 6 6 6 4 5 5 4 5 4 4 3 1 1 3 3
1 2 5 5 3 4 4 3 2 2 3 4 4 3 2 2 4 3 3 2 2 2 2 5 4 3 3 2 4 8 8 6 4 3 4 6 6 5 5 4 4 4 4 4 3 3 3 3 2 2 2 2 3 3 4 5 4 4 4 4 4 4 3 3 3 2 2 4 5 6 6 5 4 3 2 2 3 3 5 6 6 6 7 6 6 4 4 3 3 4 3 3 2 2 1 0 2
4 3 4 4 2 3 3 2 0 2 2 3 1 3 3 3 4 3 3 3 2 3 5 4 4 1 5 8 7 8 8 6 4 4 5 7 5 4 4 4 4 4 4 3 3 3 3 3 2 3 3 3 4 4 5 5 4 5 4 4 4 4 4 3 3 3 4 7 6 6 6 6 5 4 2 2 3 3 4 5 5 6 5 5 4 3 3 2 2 3 2 2 2 1 1 1 1
5 5 4 3 3 4 3 1 1 2 3 5 3 4 6 3 3 5 3 3 3 2 5 7 4 5 8 7 6 6 7 6 4 4 5 6 5 4 4 5 4 4 4 3 2 3 3 3 3 4 4 5 6 5 5 5 5 5 5 5 5 5 4 3 4 4 6 8 6 6 7 7 7 6 5 4 3 3 4 4 5 5 5 4 3 2 2 2 1 2 2 3 4 3 2 2 2
4 4 5 4 3 3 2 2 2 3 3 4 4 6 6 2 5 6 4 4 4 2 4 7 4 8 8 5 4 4 4 4 3 3 4 5 5 4 4 5 5 5 4 3 2 3 3 3 4 5 5 6 7 7 6 5 5 6 6 6 5 5 5 4 5 6 7 8 7 7 8 8 8 8 7 5 3 2 2 3 3 4 4 3 2 2 1 1 1 1 3 4 4 3 2 1 1
2 1 4 4 3 3 3 3 2 4 4 3 2 5 4 5 6 5 5 4 4 4 8 8 4 5 4 3 4 4 4 3 3 4 4 4 5 5 5 5 5 5 4 3 2 3 3 3 4 5 5 6 7 7 7 6 6 7 8 7 6 5 4 4 6 7 8 8 7 8 8 8 8 7 7 6 4 2 2 3 3 2 2 1 1 1 1 1 0 1 3 3 3 3 2 1 0
3 1 5 3 2 3 3 3 1 2 4 2 2 3 5 7 9 6 4 5 6 4 8 8 4 2 3 4 5 6 5 4 4 5 4 5 5 5 5 5 5 5 4 3 3 3 3 2 3 4 6 7 7 7 8 8 7 8 8 7 6 5 5 7 8 9 8 8 7 7 7 7 7 7 7 7 6 4 2 3 2 1 2 2 2 1 1 1 1 1 1 1 1 1 1 0 1
4 3 5 2 1 3 3 2 0 0 2 4 2 4 8 8 9 7 5 4 6 4 4 4 1 1 4 4 4 5 4 3 5 5 5 6 5 4 5 5 5 4 4 4 3 3 4 3 3 5 6 6 7 7 8 8 7 7 7 7 6 7 9 9 9 9 8 8 7 8 7 7 6 7 7 6 6 6 5 3 1 0 1 2 2 1 1 2 2 2 1 1 1 1 1 1 2
5 4 5 3 2 2 2 1 2 3 4 2 2 7 12 11 6 7 7 3 3 3 2 1 2 1 3 3 3 5 4 3 5 5 4 5 4 4 5 5 5 5 5 4 4 5 5 4 5 7 6 6 7 8 8 9 8 8 8 8 7 8 9 9 9 9 9 8 8 8 8 7 7 7 7 7 7 7 6 5 4 2 1 1 1 1 1 2 2 3 3 3 3 3 3 3 3
6 5 5 3 3 2 2 2 3 2 4 0 5 8 11 13 9 7 6 2 2 3 2 1 5 5 6 6 6 6 4 4 5 4 3 4 4 5 5 5 5 5 5 5 5 5 5 5 7 8 7 7 8 9 9 10 10 10 9 8 8 9 9 8 8 9 8 8 8 8 7 7 7 7 8 8 8 7 6 6 6 5 4 3 2 2 2 3 4 4 4 5 5 5 5 5 4
5 4 5 3 3 3 3 3 3 4 2 3 6 9 9 8 9 9 6 5 6 5 4 7 8 8 10 8 6 5 4 4 4 4 4 5 6 7 6 6 6 6 6 6 6 5 5 6 7 7 7 8 9 10 10 11 10 9 9 9 10 10 8 7 7 8 8 9 9 8 8 8 8 8 9 9 8 8 7 7 7 7 6 6 4 4 3 3 4 5 6 6 7 7 7 7 6
4 3 4 3 2 2 3 5 5 3 2 5 6 11 11 4 3 4 4 8 9 8 10 11 10 10 10 7 5 4 4 4 5 5 5 6 7 8 8 7 7 7 7 6 6 5 5 6 7 7 7 8 9 9 10 11 10 8 9 10 11 10 9 7 7 7 8 9 9 9 9 9 9 9 9 9 9 9 9 8 8 7 7 7 6 5 5 4 4 5 5 5 6 6 7 7 7
4 2 4 1 4 1 2 4 3 2 7 11 12 12 10 3 2 1 3 7 8 7 9 9 10 10 8 6 4 3 3 4 6 5 5 6 8 9 8 7 7 7 6 5 6 5 5 6 7 7 6 7 8 8 8 8 7 7 7 9 10 9 9 8 7 7 8 9 10 10 10 11 10 10 10 10 10 10 10 10 10 9 8 8 8 7 6 6 6 6 6 5 5 5 5 6 6
3 3 4 0 4 3 8 7 9 10 14 14 13 10 9 3 2 2 5 7 7 6 6 6 8 8 7 6 4 3 3 4 5 5 5 6 8 9 9 8 8 7 7 6 5 6 5 6 7 7 6 6 7 7 7 6 6 6 7 8 9 9 9 9 9 8 8 8 9 10 10 11 10 10 10 10 9 9 9 9 10 10 9 10 9 7 6 6 6 6 6 6 6 6 6 6 6
3 3 2 1 3 5 9 13 17 19 20 16 12 10 9 6 6 6 5 6 5 5 6 5 5 7 7 5 4 3 2 2 4 5 5 6 8 9 9 9 9 8 8 7 5 5 6 6 7 7 6 6 7 8 7 7 7 8 8 9 9 9 10 9 9 9 8 8 9 9 9 10 9 9 9 9 9 9 8 8 9 9 9 10 9 7 6 6 6 6 6 6 6 6 6 6 6
5 4 4 5 7 5 7 16 19 19 19 15 11 8 6 7 12 10 7 5 3 5 6 5 5 6 6 4 4 4 2 2 3 6 6 7 9 9 9 9 9 9 8 7 6 6 5 6 7 7 6 7 8 9 9 8 9 9 10 10 10 10 10 9 9 9 9 9 10 10 10 9 9 9 9 9 9 9 9 9 9 9 9 9 9 7 5 5 5 5 5 6 6 5 5 6 6
4 4 8 11 11 8 8 16 17 15 16 12 8 8 9 10 10 11 11 8 5 5 5 4 6 6 5 5 5 5 5 4 4 6 7 8 10 10 10 10 9 9 8 8 7 6 5 5 6 6 6 7 8 10 10 10 10 10 10 10 10 10 10 9 9 9 9 10 10 10 10 9 8 8 9 9 9 10 10 10 10 10 9 9 9 8 7 7 6 5 5 5 5 5 5 6 5
7 4 7 12 17 15 14 18 17 17 19 14 13 13 10 9 7 8 11 9 7 7 6 5 6 5 5 5 7 6 6 5 4 6 7 8 9 10 11 10 9 9 9 9 8 7 5 5 6 6 7 7 9 10 11 10 9 9 9 8 9 10 10 10 9 10 10 10 11 10 10 10 8 7 8 8 9 10 10 11 11 10 9 8 8 8 8 8 7 6 5 5 5 5 5 5 5
6 5 6 12 17 20 23 24 22 23 21 19 20 15 11 12 10 8 8 7 7 6 6 7 6 6 7 7 8 7 6 5 4 6 6 7 8 9 10 10 9 8 9 10 9 8 7 7 8 8 9 9 11 11 10 10 9 8 7 7 8 9 10 11 11 11 12 13 12 12 11 10 9 7 7 7 8 10 11 11 11 10 9 8 8 8 8 8 7 7 6 5 5 5 5 5 6
2 8 10 13 16 18 25 25 23 24 19 19 19 13 12 11 9 8 6 6 6 6 6 6 7 9 9 9 9 8 7 5 4 5 5 5 7 9 10 10 8 9 10 10 9 8 8 10 10 10 11 12 12 11 10 9 8 7 7 8 8 8 9 11 11 12 14 14 14 13 12 10 9 7 6 7 8 10 11 12 12 11 9 9 9 8 7 7 7 6 5 5 5 5 5 4 5
12 16 15 15 15 13 19 21 21 21 14 16 16 8 7 6 4 4 5 5 6 6 6 6 8 10 11 10 10 9 7 5 4 4 3 6 8 10 11 9 8 9 10 10 10 10 10 11 12 12 13 13 12 10 9 9 8 8 9 9 8 8 10 11 11 12 14 15 14 14 13 10 8 7 7 7 9 10 12 13 12 11 9 9 9 8 7 6 6 6 5 5 4 4 4 4 5
21 21 14 12 14 13 14 15 14 14 11 16 18 10 9 9 4 2 3 3 5 6 6 7 9 10 10 10 10 9 8 7 6 4 4 8 9 9 10 9 9 10 10 10 10 11 12 12 13 13 12 11 11 10 10 9 9 9 9 10 10 12 12 12 11 12 14 15 14 13 12 11 9 8 7 8 10 11 13 14 12 10 9 9 9 9 8 6 5 5 6 5 4 4 4 4 5
18 15 9 6 9 9 7 6 4 5 4 5 8 7 9 7 2 2 2 1 4 5 6 7 9 9 9 10 10 9 8 8 6 5 6 8 8 8 9 9 10 10 11 12 11 12 12 13 13 12 11 10 10 10 9 8 9 10 10 11 12 13 13 13 13 13 14 14 12 11 10 10 9 9 9 9 10 12 13 13 11 10 10 9 9 8 8 7 6 5 6 6 5 5 6 5 5
8 7 6 3 5 4 2 3 2 4 1 3 3 3 5 5 2 2 2 1 3 4 5 6 8 9 9 9 9 9 8 7 6 6 6 7 7 8 9 10 11 12 12 13 13 13 12 12 11 10 11 10 9 9 8 8 9 11 12 12 13 14 14 15 15 14 14 13 11 9 9 9 9 9 10 10 11 12 12 11 10 9 9 9 9 8 9 9 8 7 6 6 6 6 6 5 6
3 4 3 3 3 2 3 3 4 4 3 5 7 5 3 4 2 2 2 2 2 4 5 5 6 7 9 9 8 8 8 8 6 6 6 6 7 7 8 9 11 12 12 12 12 12 11 10 9 9 10 10 9 8 8 9 10 11 11 12 13 14 15 15 15 15 13 12 10 9 9 9 10 10 10 11 11 11 11 10 10 10 10 9 9 9 9 9 8 8 6 5 5 5 5 4 5
3 4 2 4 4 2 5 4 5 3 3 5 8 4 2 2 1 3 2 2 2 3 4 4 5 7 8 8 8 7 7 7 6 5 5 6 7 7 8 9 11 12 11 11 10 9 9 8 8 9 9 9 9 8 8 9 10 9 10 11 13 14 15 16 16 16 15 13 11 9 9 9 10 10 11 11 11 10 9 9 9 10 10 9 9 9 9 9 8 8 7 5 4 4 4 3 4
4 3 1 2 4 2 4 5 6 4 1 7 8 4 1 1 2 4 4 1 1 2 4 4 5 6 7 7 8 8 6 6 5 4 5 5 6 6 8 8 10 10 10 10 9 9 8 8 8 9 9 9 9 9 8 8 8 8 9 10 12 14 15 16 17 17 16 15 13 11 10 10 11 11 11 12 12 11 9 8 9 9 9 9 9 9 9 9 9 7 6 4 3 3 4 3 3
3 4 3 1 2 3 2 3 8 9 5 7 8 5 3 2 3 6 6 4 3 4 5 5 5 6 7 7 7 8 7 6 6 5 5 6 6 6 7 7 8 8 8 9 8 8 8 8 9 9 8 8 8 8 7 6 7 7 9 11 13 14 15 16 17 18 17 16 15 14 13 12 11 11 13 14 15 15 10 8 9 9 10 11 10 9 8 8 8 7 5 4 3 3 4 4 3
3 3 4 2 2 4 3 0 3 7 7 6 6 6 5 4 4 7 8 5 4 6 5 5 6 6 8 8 7 7 7 7 6 5 5 5 6 6 5 5 6 6 7 7 7 7 7 8 9 8 7 7 7 6 5 5 5 6 8 11 14 14 15 16 17 17 16 16 16 16 15 14 13 13 14 15 17 17 13 9 9 10 10 12 12 11 9 8 8 8 6 4 3 4 4 4 3
7 5 5 5 3 3 2 1 2 5 7 7 5 5 5 5 6 8 10 7 9 10 8 7 7 7 8 8 8 7 7 7 7 6 5 5 5 5 5 4 4 5 5 5 6 6 6 7 8 7 5 4 4 4 3 4 4 6 8 10 13 14 15 16 17 16 15 15 16 16 16 16 16 16 16 16 16 17 15 11 10 11 12 12 13 14 12 11 9 8 8 5 4 4 4 4 3
9 6 5 6 6 3 1 2 3 4 5 4 4 5 6 6 5 8 10 11 13 14 12 13 11 10 10 9 8 8 7 7 7 7 6 5 5 4 3 3 4 4 4 4 4 5 5 6 6 5 3 3 3 4 5 6 6 7 9 10 13 14 14 15 17 16 14 14 15 16 16 16 17 17 17 17 16 16 16 14 12 12 12 13 14 15 15 14 12 9 9 7 5 4 4 4 3
8 7 7 5 5 2 1 3 2 3 5 3 4 7 7 6 4 8 11 10 11 12 12 14 14 13 12 10 9 7 7 7 7 7 7 6 6 5 3 3 3 4 3 2 2 3 4 5 5 4 3 3 5 6 8 9 9 10 10 11 12 13 14 14 15 14 13 13 14 15 16 16 17 17 17 17 17 16 16 16 14 13 13 13 14 14 15 16 14 11 9 8 6 5 4 3 3
8 5 6 5 4 3 3 3 4 5 5 1 4 8 7 6 4 8 12 8 7 10 10 12 14 14 15 13 12 9 7 7 7 7 8 7 7 6 4 3 3 3 3 2 2 3 3 5 5 4 4 5 7 8 10 10 11 12 12 12 12 13 14 13 13 13 13 13 14 14 15 16 16 17 17 17 17 17 17 17 16 14 14 13 13 13 14 15 16 14 11 9 8 6 6 5 4
6 5 6 5 4 4 2 2 4 5 3 3 4 6 5 6 5 7 12 11 9 11 10 11 13 13 14 14 13 12 10 9 8 8 8 8 7 6 6 4 3 3 3 3 2 3 4 5 6 6 6 8 9 10 11 12 12 13 13 14 14 14 14 13 12 12 13 13 13 14 14 15 15 15 16 16 16 17 17 18 18 16 14 13 14 14 14 15 15 15 14 10 8 7 6 6 6
3 3 6 7 5 5 4 3 2 5 3 3 5 5 5 6 7 6 9 12 13 14 13 13 13 13 13 13 13 14 13 12 10 9 8 8 8 8 7 6 4 4 3 3 4 4 6 7 8 8 9 10 11 12 13 14 14 14 15 15 15 15 14 13 13 13 13 14 15 15 15 15 15 15 16 16 17 17 16 17 18 18 16 14 14 14 14 14 14 14 15 12 8 7 7 7 7
2 3 5 9 9 8 8 6 5 5 3 2 4 5 3 6 7 6 7 8 10 14 16 16 15 14 14 14 14 14 14 14 13 12 10 9 9 8 8 7 6 5 5 5 6 7 8 8 9 9 10 11 13 14 15 15 16 16 17 17 17 17 17 16 16 16 17 17 17 17 16 16 16 16 17 18 18 17 17 17 17 17 18 16 14 14 14 14 13 13 14 13 10 9 8 8 8
3 4 6 9 10 11 10 7 5 3 2 2 3 6 0 5 6 7 6 6 8 12 16 18 18 16 14 14 14 14 15 15 15 14 13 11 10 9 8 8 8 7 7 7 8 9 9 9 10 10 11 13 14 15 16 16 16 17 18 19 19 19 19 19 19 19 20 20 20 19 18 17 17 17 17 18 19 19 18 17 17 17 18 18 16 15 14 14 13 12 12 12 12 11 10 9 9
3 3 9 11 11 10 8 7 5 2 3 2 5 5 3 3 4 6 5 6 8 10 12 17 21 19 15 14 13 13 14 15 15 15 14 12 11 10 9 8 9 8 8 9 9 11 11 12 11 12 12 13 15 15 15 16 17 18 19 20 20 20 20 21 20 21 21 21 21 21 20 20 19 18 18 17 18 19 18 18 18 18 18 19 18 16 15 14 13 12 11 11 11 12 12 9 8
2 4 10 9 10 8 6 7 4 1 2 3 6 4 4 2 5 5 5 6 7 9 8 12 19 19 16 15 13 12 13 13 14 15 14 13 11 10 10 9 9 9 9 10 11 12 13 13 12 12 12 13 14 15 16 17 18 19 21 21 22 22 22 22 22 22 21 21 21 21 21 21 20 20 20 20 19 19 19 19 18 19 19 19 18 17 15 14 13 12 11 11 11 12 11 9 7
4 11 13 9 9 7 6 6 3 3 5 1 6 4 4 2 5 5 6 5 5 8 6 9 16 17 14 14 13 12 12 12 13 14 14 13 12 11 10 10 9 10 10 10 11 12 12 12 11 11 11 12 13 14 16 17 18 19 21 22 23 23 23 24 24 23 22 22 22 22 22 22 21 21 20 20 20 20 21 20 19 19 19 18 18 17 15 14 12 11 11 11 10 10 9 8 7
13 13 12 8 7 5 4 3 3 4 3 3 6 2 4 0 4 3 2 2 4 4 5 9 15 15 12 13 14 13 13 13 13 14 14 13 13 12 11 10 10 10 10 10 10 11 10 10 10 10 11 12 12 14 16 17 18 19 20 21 22 23 24 25 25 25 24 23 23 23 23 23 22 21 21 20 20 21 21 21 20 20 19 18 17 17 15 13 12 11 10 10 10 9 9 9 8
13 8 7 6 4 4 3 4 4 5 1 5 5 2 4 3 2 3 3 3 3 3 3 7 12 13 12 12 12 12 13 13 14 14 14 14 14 13 13 12 11 10 10 10 10 10 10 10 11 10 11 14 14 14 16 17 17 18 19 20 21 22 23 24 25 26 26 25 24 23 23 23 23 22 21 21 20 20 20 21 22 21 20 18 16 16 15 13 12 11 10 9 9 9 9 8 7
9 7 7 6 3 2 1 3 3 2 2 4 3 2 3 1 3 4 4 4 4 4 3 7 10 10 11 12 11 11 12 14 14 15 15 15 15 14 14 13 12 12 12 13 13 13 13 13 13 12 13 16 16 16 16 17 17 18 18 19 20 21 22 23 24 25 25 24 23 23 23 24 24 23 22 22 21 20 20 21 22 22 22 19 16 15 15 13 12 11 9 8 8 8 9 8 7
8 8 6 5 4 2 1 2 1 1 3 4 3 3 2 2 3 3 4 5 5 4 8 9 9 9 10 11 11 12 13 15 15 15 15 15 15 15 16 16 16 18 18 19 19 18 17 16 16 16 17 18 19 19 19 19 19 19 19 19 20 20 21 22 23 23 23 23 23 23 23 24 24 24 24 24 23 22 21 21 21 22 23 20 17 15 15 13 12 10 8 7 7 7 8 7 8
5 5 6 6 6 4 3 3 2 2 2 3 4 3 1 1 2 4 4 4 4 8 10 9 8 9 9 11 13 14 15 16 16 16 16 16 16 17 17 18 20 20 20 20 20 20 19 19 19 19 19 20 21 22 22 22 22 22 21 21 21 21 21 22 22 23 23 23 22 23 23 24 24 25 25 25 24 22 21 20 20 21 22 21 18 17 16 14 12 11 8 7 7 7 6 6 8
0 1 5 3 4 5 3 3 4 4 1 2 3 1 2 2 3 4 4 5 6 11 11 10 10 9 8 11 13 14 15 16 17 17 17 16 16 16 17 17 18 18 20 20 20 20 20 20 20 20 21 21 22 22 23 23 23 24 24 24 24 24 24 24 24 24 24 24 24 23 23 23 24 25 25 24 23 22 21 20 20 19 19 19 18 18 18 14 12 11 9 8 7 7 7 7 9
1 2 3 4 4 7 6 1 1 4 3 1 1 1 4 3 3 4 5 5 6 10 11 11 9 7 8 11 12 12 13 13 14 15 15 15 15 15 15 15 15 17 18 20 21 21 21 21 20 20 20 20 21 22 22 23 24 24 25 26 26 27 27 27 27 26 26 26 25 25 25 25 25 25 25 24 23 22 22 21 19 17 18 19 18 19 19 15 12 11 10 8 7 7 8 8 9
4 3 5 3 3 4 5 3 3 4 2 2 1 1 3 1 1 3 3 3 4 7 8 9 8 9 12 13 14 13 13 12 11 11 11 11 12 13 13 13 14 15 17 19 20 20 20 20 20 19 19 20 20 21 22 23 23 24 25 25 26 26 27 27 27 27 27 27 27 26 26 26 25 25 25 25 24 23 22 21 20 17 19 22 20 20 20 15 12 12 9 8 7 8 8 8 9
6 8 7 4 3 1 3 4 2 2 1 2 1 1 3 2 3 3 2 2 3 5 6 6 6 9 13 15 17 16 14 13 11 10 9 9 10 11 11 11 12 13 15 17 18 18 18 17 17 17 17 18 18 19 21 22 22 22 23 23 24 25 26 26 26 27 27 28 29 29 29 28 27 26 26 25 25 24 22 21 20 19 21 23 21 19 19 14 12 12 10 8 8 9 10 9 9
9 8 3 2 2 3 2 3 3 4 3 2 0 2 3 4 4 4 5 4 4 4 2 2 2 7 12 15 18 17 15 14 12 11 10 8 8 8 9 9 10 11 12 14 16 15 15 14 14 15 15 16 17 18 19 20 20 20 21 22 23 24 25 26 27 28 29 30 30 31 31 31 30 30 28 28 27 26 24 23 22 21 22 23 21 20 18 14 14 14 11 10 10 10 11 10 9
4 3 1 2 3 2 3 2 2 4 4 3 2 1 5 5 3 6 6 4 5 5 2 2 4 9 13 15 18 17 15 14 13 11 10 9 8 7 7 7 7 8 10 12 13 12 12 12 13 14 14 15 16 17 18 18 18 19 21 22 23 24 25 26 27 29 30 31 32 32 32 32 32 32 31 31 30 30 29 26 26 26 24 22 21 20 18 14 15 16 13 11 11 11 11 11 9
5 3 3 4 3 4 4 1 1 2 4 4 4 2 5 4 2 5 6 7 8 7 6 7 7 10 14 16 16 16 15 14 12 11 11 10 10 10 9 9 8 8 8 9 11 11 11 11 12 12 13 14 15 16 17 17 18 20 21 22 22 23 24 25 26 28 29 30 32 32 32 32 32 32 32 32 32 32 32 30 28 26 25 25 23 19 18 16 16 17 15 12 11 11 11 11 9
Wind_Direction
352 10 6 7 350 327 306 331 61 11 63 87 314 157 297 89 93 326 345 13 12 3 27 54 67 86 88 92 109 92 69 80 137 121 147 152 150 167 134 149 252 358 352 29 12 6 8 7 7 6 9 9 9 21 38 44 49 58 71 94 100 94 95 95 104 97 95 95 95 77 47 27 352 341 336 327 324 305 286 122 164 179 162 160 166 164 165 108 93 96 87 87 99 113 126 133 134
10 17 6 356 336 319 272 24 84 342 46 86 287 183 270 1 38 310 352 34 114 68 64 78 79 75 69 79 88 75 61 64 82 98 106 126 156 157 122 125 124 98 102 73 23 23 27 15 21 22 17 23 24 29 46 53 62 69 72 87 93 93 97 99 91 72 63 64 74 69 45 23 10 9 6 0 349 318 102 92 95 96 124 138 139 135 136 133 124 116 108 110 115 125 134 139 134
10 357 354 343 335 18 104 42 74 58 68 165 276 257 301 27 297 286 326 24 109 94 77 72 69 51 34 49 42 35 68 78 88 100 108 131 145 127 118 108 102 102 82 66 49 34 34 33 37 37 31 35 34 30 44 55 64 70 70 76 81 85 89 81 67 60 55 54 61 54 34 25 24 22 12 7 356 49 114 107 99 95 117 130 134 133 130 125 120 114 106 110 118 125 134 140 128
12 357 347 342 22 57 62 46 97 113 106 206 257 285 317 129 272 303 9 69 107 92 58 37 47 38 35 47 22 35 81 86 99 113 118 129 122 100 99 98 103 100 90 72 65 54 44 52 40 34 36 40 36 30 36 52 65 69 65 67 69 69 73 66 60 66 65 65 67 49 35 31 26 20 15 27 47 97 118 120 117 116 125 132 136 130 124 112 105 109 110 115 123 126 138 140 126
15 8 350 347 60 61 69 68 78 94 153 192 210 280 254 190 274 326 32 78 105 70 21 19 38 48 54 52 15 19 63 70 84 107 113 112 105 89 78 86 96 85 81 70 65 60 49 52 36 25 30 32 32 36 41 52 68 79 71 66 71 67 64 66 69 75 74 75 76 62 48 39 30 25 37 61 75 85 86 95 123 128 132 136 130 122 120 111 103 105 107 119 144 170 186 184 166
17 12 13 58 74 62 77 72 68 100 204 185 186 263 239 186 181 2 44 75 358 291 321 12 71 74 71 58 55 58 54 78 64 73 95 105 98 84 76 80 86 77 74 69 67 59 49 45 33 22 24 21 25 37 45 52 60 74 78 76 80 73 70 86 100 98 96 97 87 76 58 47 45 38 48 59 63 38 29 67 115 130 132 131 120 114 111 109 106 97 91 90 112 182 212 222 226
319 342 29 70 62 49 91 111 143 173 210 188 193 229 217 179 140 75 52 50 311 302 312 75 97 96 91 64 66 58 56 91 80 83 104 117 106 83 76 79 81 74 74 75 75 68 56 44 34 34 33 17 31 36 42 57 63 69 81 88 89 89 94 109 113 114 113 96 72 70 58 45 51 48 50 41 49 21 28 68 102 123 129 127 120 115 103 100 99 102 103 87 73 93 232 240 240
167 63 57 79 45 39 102 119 169 209 217 210 197 172 161 110 111 88 47 38 337 353 57 86 70 68 83 64 78 59 57 71 75 109 108 101 96 82 80 78 77 68 72 80 76 68 61 54 48 56 44 24 38 42 48 59 65 69 73 81 91 96 96 94 95 105 93 75 50 48 45 30 33 40 37 10 28 13 27 72 98 116 126 124 119 113 97 86 93 117 121 98 68 51 46 257 239
111 74 67 84 75 63 82 69 106 234 275 291 146 113 74 70 103 84 34 34 13 24 47 32 355 78 100 76 79 66 61 66 66 97 91 94 96 87 86 76 73 70 75 80 74 67 62 61 60 65 53 42 46 42 48 54 59 64 58 56 68 71 77 87 91 80 63 66 47 31 31 24 23 21 6 349 6 5 16 60 90 111 119 108 106 99 81 72 93 123 125 120 118 105 102 107 166
89 76 103 90 75 82 71 16 304 254 289 320 345 30 20 22 103 78 59 52 18 25 38 17 25 117 110 81 76 65 67 78 73 83 86 98 101 89 85 73 68 66 73 79 79 74 65 63 63 64 53 40 39 36 43 51 53 54 46 47 59 60 60 77 84 62 53 58 45 35 37 32 29 26 14 358 352 1 10 41 79 102 107 96 90 75 61 71 87 112 116 118 124 140 149 149 160
77 72 109 85 73 102 128 196 263 275 296 324 342 18 25 63 112 77 69 77 31 37 24 9 69 102 97 90 72 53 72 109 90 76 81 90 99 93 82 71 67 65 68 79 85 75 60 63 65 57 46 37 37 38 45 56 60 58 57 60 63 60 49 49 67 60 53 52 45 44 43 39 36 34 28 18 357 347 352 15 57 76 88 96 85 55 29 57 57 115 118 108 111 132 147 159 162
82 28 86 88 121 139 157 166 229 280 326 332 342 25 58 95 88 64 62 69 11 35 38 35 104 102 86 98 82 72 72 107 94 77 80 81 93 89 78 66 62 60 59 76 79 68 59 66 68 52 42 43 45 44 48 60 69 66 65 68 62 66 65 50 56 58 54 52 51 46 42 40 37 37 38 34 23 1 344 5 29 30 36 40 32 53 33 59 86 153 121 104 103 117 130 141 68
131 156 82 93 150 121 134 151 213 318 337 282 222 47 77 70 55 52 71 50 13 33 49 57 106 83 92 110 92 92 77 81 89 83 83 82 86 83 76 58 51 49 48 65 69 73 87 88 67 45 43 47 51 54 56 63 69 69 66 64 55 53 55 45 45 48 45 45 47 45 42 38 32 36 39 38 33 20 5 10 26 351 346 344 337 34 121 178 201 207 130 89 76 65 84 86 302
111 134 94 102 98 104 128 135 175 105 282 254 206 86 73 55 53 62 74 48 16 32 62 66 111 37 104 116 96 102 95 93 95 88 84 85 88 79 70 52 45 49 49 58 72 89 103 94 59 48 52 53 55 59 61 61 60 64 65 60 43 33 39 37 37 41 38 36 30 30 32 29 27 30 30 34 32 24 21 19 30 293 297 316 332 347 202 202 216 244 279 317 319 323 317 311 298
93 103 91 104 99 110 134 156 155 157 233 272 93 102 73 53 69 67 54 73 23 41 145 172 333 18 99 108 113 129 128 100 90 84 82 88 85 66 60 56 52 53 54 59 78 97 100 82 58 57 64 63 59 58 58 56 53 53 58 56 41 34 40 34 30 36 37 35 28 26 29 29 29 27 29 29 25 18 17 20 22 3 298 282 306 298 251 230 235 259 275 283 288 287 293 297 295
104 99 76 92 138 166 174 173 132 151 245 350 98 109 74 50 65 66 43 97 83 53 187 312 13 58 82 89 115 136 137 109 94 82 73 78 72 66 61 63 62 58 59 65 80 96 99 79 62 66 72 68 61 59 59 57 56 54 56 51 39 39 46 35 28 34 36 35 29 29 32 33 33 34 36 32 26 18 12 16 14 11 5 354 339 319 291 268 262 269 275 281 289 290 294 296 294
109 90 68 85 159 184 183 166 154 182 215 119 106 96 86 59 64 73 68 85 77 57 58 45 49 76 86 95 115 122 122 117 108 82 52 49 54 61 63 65 66 65 64 68 79 90 92 78 72 76 77 73 63 61 61 60 61 60 58 49 41 42 44 35 29 30 29 27 26 29 30 30 32 31 30 28 30 29 24 20 12 10 8 4 0 350 327 302 291 289 291 294 299 298 297 295 290
91 84 88 101 173 170 193 183 181 192 116 100 84 83 97 99 62 83 74 61 60 59 58 61 73 86 94 107 116 117 124 113 95 72 47 42 50 54 59 68 67 63 62 63 74 81 82 77 81 86 80 74 65 60 60 59 60 58 52 42 37 38 33 25 23 23 21 24 29 32 30 27 25 22 23 26 28 31 32 32 28 23 15 8 2 357 349 341 332 324 322 321 319 315 308 298 289
63 97 94 125 197 57 10 172 153 71 106 88 68 76 87 101 207 167 69 49 46 57 55 63 78 81 94 105 106 110 114 99 86 75 60 49 50 51 51 61 63 56 57 61 72 82 85 83 87 90 82 73 63 59 58 56 54 47 37 29 28 29 25 21 19 18 21 28 33 33 30 26 23 22 24 26 27 29 30 31 30 24 17 10 2 359 355 349 346 340 338 335 332 329 325 315 300
41 80 80 272 196 43 28 79 85 94 109 87 70 83 82 89 191 133 96 68 42 44 39 46 64 62 73 90 102 106 99 97 88 78 72 57 48 48 47 51 58 55 53 57 70 83 87 87 92 92 81 69 57 52 53 46 39 28 16 22 27 27 25 26 28 25 26 30 30 28 27 25 24 22 21 21 25 27 26 22 19 15 8 2 357 353 349 344 340 335 330 325 323 320 318 316 309
34 59 115 173 111 50 33 71 87 97 101 92 91 94 84 72 71 76 92 78 39 21 28 36 52 51 59 73 91 97 101 105 97 88 77 66 57 53 51 51 57 56 54 57 68 85 91 92 94 91 78 66 56 51 49 40 33 31 31 39 39 35 32 34 36 31 26 22 21 19 15 16 14 11 9 10 11 12 13 11 10 9 3 358 353 346 343 341 332 322 318 313 313 316 316 313 310
68 62 87 66 80 74 52 79 90 97 97 94 89 85 91 77 62 55 51 65 37 5 24 45 54 55 51 45 59 70 64 54 88 92 82 72 65 60 58 52 55 58 58 62 68 80 90 96 91 83 73 63 57 53 53 51 50 52 54 51 43 38 34 29 25 19 13 10 10 10 5 3 358 355 354 355 356 355 357 357 359 0 358 357 354 348 340 337 330 316 307 305 309 317 324 322 317
101 67 50 60 85 95 80 85 91 100 98 88 89 103 108 93 69 53 56 62 39 28 47 57 46 42 31 23 50 70 69 61 74 81 74 70 66 63 62 56 56 57 58 61 65 71 80 91 82 73 68 57 55 59 63 66 64 62 61 52 40 32 27 21 16 11 8 5 3 2 2 0 351 343 341 341 344 346 349 352 352 351 352 353 352 350 340 333 330 317 311 312 314 321 329 336 336
104 83 50 72 88 90 98 101 99 102 98 97 111 109 94 91 86 59 57 52 40 48 59 57 48 41 40 41 56 72 79 81 83 73 62 63 62 58 60 61 61 56 55 60 66 73 77 84 75 66 65 59 63 70 71 67 62 58 58 48 32 28 30 30 30 26 20 15 10 6 6 6 359 344 334 336 340 342 346 350 349 345 344 347 348 350 343 337 332 321 318 321 325 323 320 332 343
72 93 89 86 87 94 103 105 103 100 100 107 105 92 86 91 85 66 46 36 39 46 52 59 65 65 68 65 63 72 87 89 77 65 57 59 58 53 56 59 63 61 58 61 70 78 77 79 77 71 71 71 75 77 70 61 55 52 48 39 35 38 41 43 43 37 29 23 19 19 18 15 12 1 346 344 342 341 344 346 345 341 337 336 335 339 336 333 334 330 319 315 328 327 319 331 340
83 100 102 95 93 101 103 102 103 101 103 105 95 88 102 91 65 57 32 17 19 25 50 63 66 67 65 65 71 78 87 88 67 63 66 64 56 47 50 56 65 70 67 68 75 82 80 79 80 78 80 80 79 75 65 58 56 50 41 41 48 47 40 40 39 32 27 23 21 23 24 21 20 17 5 354 346 342 344 345 346 345 342 335 331 335 332 320 321 327 323 311 314 323 328 342 345
118 96 92 97 102 104 103 107 107 102 103 99 94 102 97 59 36 50 10 9 7 4 37 55 58 60 58 61 70 72 75 78 67 65 66 60 53 43 44 55 67 72 73 74 74 79 80 80 81 82 82 80 74 67 60 58 58 54 48 46 44 38 36 37 32 26 24 22 22 25 24 22 18 13 4 353 346 344 347 349 350 349 347 344 343 347 346 327 307 306 312 307 306 319 322 322 331
120 103 88 78 93 98 100 112 110 101 105 95 90 84 53 41 49 24 334 360 356 358 27 44 52 50 49 53 61 66 64 62 54 45 45 47 48 41 43 58 70 73 76 76 72 72 78 81 82 79 75 72 66 59 59 60 56 51 46 37 30 32 37 37 30 26 24 22 24 26 22 17 10 1 354 348 346 345 346 349 353 354 353 353 353 353 353 345 321 300 297 297 303 317 311 305 314
117 107 93 46 74 88 88 105 102 90 125 105 80 61 26 20 22 347 332 323 333 1 27 33 40 39 37 37 49 62 58 50 46 44 45 44 44 40 46 64 74 75 75 75 74 75 80 83 79 73 66 59 52 51 56 55 46 38 30 27 30 33 34 34 31 28 25 23 25 23 14 8 1 353 347 343 340 339 339 344 352 356 356 355 352 349 346 341 336 321 305 299 300 304 304 299 301
108 89 90 47 39 30 50 80 25 55 92 315 36 68 353 347 1 8 359 313 324 5 28 28 27 32 36 34 42 53 55 49 45 51 50 46 45 41 51 69 77 78 76 74 76 78 81 81 75 67 57 48 46 49 50 43 34 28 26 31 37 37 33 33 31 28 24 21 21 16 5 358 352 345 338 334 333 333 334 340 348 353 355 356 350 345 342 337 337 337 327 316 308 305 307 300 289
92 71 57 47 70 334 333 41 35 46 7 11 75 96 350 337 5 28 3 315 334 13 35 29 21 32 39 39 43 45 51 49 44 52 53 50 49 48 59 72 79 82 83 80 78 78 77 74 68 58 48 45 49 51 45 39 34 30 32 37 40 38 35 34 30 27 23 18 15 9 359 351 346 340 334 332 332 331 332 338 344 347 352 355 351 349 348 342 341 344 342 337 323 313 316 311 292
45 81 349 356 83 312 325 25 56 68 316 28 85 107 13 353 25 45 26 289 288 13 47 32 19 30 36 43 46 44 50 51 48 48 50 55 56 62 70 75 80 83 87 86 82 79 73 66 57 49 45 48 53 56 50 44 40 36 36 37 36 35 33 30 28 25 22 18 16 13 6 357 350 342 337 338 339 336 336 341 344 344 347 348 347 349 348 345 347 351 351 350 335 317 316 316 304
4 87 121 1 72 17 346 21 34 51 3 32 63 126 92 23 93 68 42 26 205 64 56 35 17 22 32 42 45 50 57 58 57 49 51 58 62 76 80 78 80 81 84 84 80 75 68 58 50 46 48 53 57 61 59 51 44 33 29 31 30 27 25 24 23 21 18 19 21 23 20 11 3 356 352 353 358 356 348 347 348 343 343 344 344 346 347 348 349 351 354 358 344 323 316 309 303
341 49 85 89 97 83 34 5 18 37 67 50 48 91 89 33 84 75 48 65 111 74 54 35 27 28 33 41 47 55 60 64 64 55 62 69 73 86 88 84 82 81 81 79 76 69 60 51 43 42 50 61 64 65 63 52 40 27 20 22 22 20 20 20 19 16 13 14 19 25 27 21 15 13 9 6 9 9 360 350 349 344 342 343 345 347 350 353 353 351 352 357 352 336 328 319 301
158 108 106 100 66 85 93 152 1 34 59 66 59 68 55 20 38 49 39 46 59 54 56 46 40 41 42 51 62 58 54 65 68 57 63 70 80 90 90 88 78 77 77 69 68 58 49 41 35 39 54 69 69 63 60 42 35 28 16 15 15 14 15 16 16 15 12 10 11 18 23 22 20 18 13 7 7 8 5 353 345 343 342 344 348 349 350 355 355 351 346 341 342 337 335 335 315
142 137 125 122 96 78 98 126 101 82 66 47 56 69 45 17 6 15 18 24 38 41 49 54 50 49 51 61 67 59 54 65 68 61 60 61 80 96 99 100 81 72 70 57 54 45 36 30 28 37 55 67 60 44 27 15 25 25 15 16 14 10 10 11 10 9 10 8 7 10 15 16 15 15 14 9 5 4 4 358 348 345 342 345 350 351 353 356 355 350 344 339 331 326 327 328 318
117 106 104 117 111 90 67 93 62 80 79 20 35 64 33 13 349 354 12 25 31 28 32 40 44 48 51 58 61 54 51 57 64 62 58 57 72 91 106 120 103 82 73 56 45 34 27 22 22 29 38 34 11 356 354 359 7 9 7 9 8 3 2 3 3 2 2 4 5 6 8 9 8 9 10 10 7 4 3 358 352 348 346 347 350 351 353 357 358 350 343 342 329 312 314 306 301
104 104 109 102 109 109 46 90 25 33 81 7 20 58 21 359 349 2 21 27 21 18 23 28 32 42 47 51 56 53 46 45 56 61 57 54 57 73 98 125 113 94 80 64 39 23 16 10 10 14 11 355 345 345 350 355 354 354 356 358 357 354 352 353 355 354 352 354 359 360 0 2 3 3 4 5 5 4 3 359 352 346 344 344 345 345 346 351 357 356 345 341 332 312 303 290 283
105 111 115 104 127 116 35 29 6 29 86 4 31 66 23 347 350 21 28 27 24 26 29 25 25 33 36 40 46 52 56 48 51 56 56 55 50 60 85 115 112 96 83 71 40 18 6 359 2 356 338 332 336 341 345 348 345 344 346 345 344 343 342 343 346 346 342 343 349 352 353 355 357 358 358 358 360 360 1 360 355 349 341 337 338 337 336 341 350 356 352 341 333 322 304 291 286
108 126 122 136 177 125 70 333 3 25 90 138 93 73 26 356 357 22 29 37 47 36 31 29 27 28 28 31 36 41 51 52 52 51 51 54 52 57 76 94 95 82 78 63 37 18 1 353 353 349 339 333 333 335 338 339 338 338 339 339 338 336 335 334 336 336 334 334 337 341 342 343 346 347 348 350 352 354 355 357 356 352 345 337 334 332 331 334 338 347 352 346 329 318 304 294 287
106 151 139 152 167 113 114 164 73 29 46 90 76 49 8 358 3 358 9 30 42 33 30 32 27 27 30 36 38 36 39 42 44 46 45 46 48 51 57 66 68 54 48 36 21 9 359 352 346 342 340 338 337 335 336 336 335 335 336 337 334 331 328 326 325 324 324 325 326 328 329 331 334 336 338 339 343 346 348 352 353 352 349 341 335 331 328 329 329 335 344 348 336 315 305 295 288
136 234 170 150 141 116 111 120 86 45 16 355 64 65 348 333 5 355 343 13 26 23 25 24 20 23 26 32 36 36 36 35 35 35 36 36 39 43 44 47 44 26 13 7 359 353 351 347 341 338 337 338 339 338 338 337 335 335 335 336 335 331 326 322 320 319 318 319 319 319 321 325 329 331 333 334 335 338 340 343 347 349 348 344 339 334 328 324 324 325 332 342 344 330 314 301 294
161 222 154 129 122 119 117 114 86 82 213 299 63 103 11 327 359 341 331 10 16 16 17 12 13 16 16 20 25 30 33 34 35 33 32 33 34 37 37 35 32 24 17 8 1 357 354 349 344 340 336 336 337 337 337 334 332 332 331 332 332 330 325 319 316 314 314 314 312 312 313 316 320 322 325 328 329 330 333 336 338 342 344 343 340 336 330 322 319 320 323 330 336 334 326 310 298
180 199 135 122 117 118 111 100 91 144 194 359 29 92 101 349 334 315 333 26 18 10 8 4 9 11 14 21 22 28 32 31 33 33 33 33 33 34 32 28 24 22 21 15 10 6 0 357 353 346 340 334 332 331 330 328 326 326 325 325 324 324 320 317 313 311 311 310 308 307 307 307 310 312 314 317 319 321 325 328 330 333 336 338 338 335 331 324 317 313 313 319 322 325 329 319 296
222 126 107 108 106 105 97 93 87 32 80 33 348 40 81 321 307 320 358 40 14 356 349 353 5 8 13 24 29 34 36 34 34 33 33 32 31 31 31 30 24 19 18 14 10 6 1 358 356 351 341 330 324 322 322 322 322 321 321 319 319 318 317 316 314 312 310 308 305 303 302 301 301 304 307 309 310 312 316 318 320 323 327 330 333 332 330 323 316 309 306 308 310 314 324 326 302
149 108 87 78 79 75 75 89 89 35 58 47 308 4 93 299 309 335 8 34 354 335 324 337 3 11 13 25 37 42 42 43 42 39 38 35 34 34 32 33 30 25 21 18 13 7 3 357 354 351 335 322 322 324 323 323 320 319 318 316 316 316 315 314 312 310 308 305 303 302 301 300 298 298 300 302 304 305 307 309 310 311 315 320 325 327 325 320 315 309 302 299 301 305 311 318 306
123 99 83 74 56 44 51 57 76 60 21 283 284 316 114 127 305 299 327 328 301 308 317 338 0 12 16 28 42 47 46 48 47 46 46 43 42 42 39 36 34 31 26 23 19 12 9 2 358 354 328 320 330 331 326 325 322 320 318 316 315 314 313 312 309 307 305 303 301 300 300 299 298 296 295 295 297 298 301 302 301 299 301 308 316 319 319 316 313 309 300 291 290 293 294 300 298
113 93 105 94 29 12 34 357 33 72 325 271 282 324 92 101 276 264 281 307 295 271 292 340 355 3 14 31 45 49 48 50 51 51 51 50 51 49 48 46 41 38 31 26 22 17 16 9 3 356 331 329 340 337 331 331 328 325 322 320 318 317 315 314 311 309 307 305 302 299 297 296 295 293 291 290 291 294 297 297 295 292 291 295 303 310 312 309 307 307 301 289 283 283 285 289 283
101 105 113 99 44 20 42 330 2 83 237 259 283 353 70 126 244 265 296 321 307 284 328 7 1 4 18 33 50 55 55 57 55 54 53 53 55 55 54 52 46 43 40 37 35 31 28 22 15 8 354 352 356 352 348 347 342 339 336 332 330 328 325 323 320 316 313 311 307 303 299 297 295 293 289 286 287 291 293 293 293 290 286 285 291 301 305 300 296 298 298 291 283 282 282 276 265
130 137 129 123 116 94 218 255 353 287 237 261 298 30 59 299 277 257 277 302 314 360 35 27 13 18 30 44 65 70 67 66 62 60 61 60 61 60 57 56 54 53 51 48 46 42 38 34 29 23 16 13 13 11 9 6 3 359 353 348 344 341 338 337 335 331 326 321 315 310 306 303 300 298 293 290 289 290 289 289 290 287 283 282 284 292 296 292 286 285 288 284 279 284 285 267 255
139 148 127 143 156 143 191 198 163 198 219 293 329 37 115 257 267 248 282 327 15 50 47 39 37 43 52 68 78 77 73 72 69 67 67 67 66 64 62 61 59 56 52 48 46 43 40 36 32 28 25 21 19 19 18 17 16 13 10 7 3 358 353 349 347 345 341 335 327 320 314 309 306 304 301 297 294 292 289 285 283 282 282 282 281 283 285 284 279 274 273 275 274 285 293 271 252
335 118 103 145 182 138 136 169 158 155 128 342 351 23 226 227 258 280 347 19 52 61 50 41 43 46 64 76 75 73 74 74 73 71 70 69 68 65 64 62 58 53 48 44 41 38 37 35 32 30 27 24 22 21 20 20 20 19 18 18 16 13 9 4 360 355 351 347 341 335 327 321 316 312 308 304 298 292 288 284 279 278 280 280 276 275 276 276 276 271 264 269 277 286 293 278 258
128 95 154 200 165 119 114 130 33 81 99 330 350 291 298 326 302 312 16 26 38 53 43 29 31 44 68 72 70 70 72 73 72 70 69 68 65 63 61 58 53 49 44 41 37 34 33 33 32 30 28 27 24 22 21 21 20 19 18 17 16 15 13 11 8 3 359 354 350 344 339 333 328 323 318 312 305 295 289 284 278 275 276 273 268 268 269 267 269 270 263 266 280 294 293 277 259
135 165 192 173 107 95 102 103 17 47 98 282 329 216 273 353 301 303 12 32 39 44 28 20 36 70 80 80 81 79 77 76 74 73 71 68 64 61 58 53 49 46 42 40 36 33 32 33 32 30 28 27 26 24 24 22 19 18 15 14 13 12 11 10 8 5 2 358 356 352 347 343 338 333 326 320 312 303 295 286 277 273 271 267 261 263 266 263 262 266 263 266 282 301 303 281 256
103 146 151 120 123 139 67 101 133 110 135 280 333 266 243 201 214 249 223 162 95 51 19 15 46 80 87 87 88 87 83 80 77 76 73 68 65 59 52 48 44 42 40 38 35 31 32 35 34 32 30 28 27 25 24 21 18 15 13 11 9 7 7 6 4 3 1 359 358 356 353 350 347 343 336 329 321 311 302 290 280 272 267 265 260 259 261 259 259 261 257 264 282 297 308 294 254
69 97 87 35 125 149 119 123 149 138 146 199 30 355 264 228 209 184 186 187 124 86 19 350 69 95 94 91 89 87 83 79 75 72 68 63 60 51 39 33 28 31 36 35 35 35 36 37 35 32 30 26 24 23 20 17 13 9 6 5 4 2 1 360 360 360 359 359 357 355 353 352 350 348 345 339 333 324 314 302 290 282 274 270 263 257 256 252 254 257 253 261 275 287 304 303 260
85 78 22 28 70 125 134 93 89 124 137 161 143 281 265 251 201 164 168 166 135 130 153 169 130 109 98 93 92 89 85 80 74 69 65 58 53 42 29 25 20 23 34 38 38 38 36 33 29 27 24 22 21 18 14 10 6 3 2 3 3 2 1 360 359 359 359 359 357 354 351 349 348 348 347 345 342 337 331 322 311 302 291 282 272 258 249 246 251 253 247 253 267 275 296 305 272
156 154 166 142 122 128 119 75 318 110 120 158 153 193 265 264 179 154 147 143 145 153 166 160 134 112 103 98 95 92 88 85 79 73 68 61 59 55 48 45 38 32 35 34 28 24 23 24 24 20 16 15 16 12 7 4 360 359 1 2 1 1 1 1 1 1 1 0 358 355 351 348 348 348 349 349 348 346 343 339 331 320 305 299 297 277 252 242 248 251 246 246 260 269 286 306 285